Location: Unspecified
(0.0000°N, 0.0000°E)
Time: 23:55:22
(UTC+00:00)

SRMSAT - Pass Details

Date: 24 July 2019
Orbit: 848 x 866 km, 20.0° (Epoch: 16 August)

Event Time Altitude Azimuth Distance (km) Brightness Sun altitude
Exits shadow 04:15:42 66° 205° (SSW) 916 ? -25.9°
Maximum altitude 04:15:45 66° 201° (SSW) 916 ? -25.9°
Drops below altitude 10° 04:21:38 10° 119° (ESE) 2,461 ? -24.6°
Sets 04:24:12 0° 117° (ESE) 3,396 ? -24.0°
